Quillayute, WA
on Thursday, January 17, 2013

Thursday
Previous Day Next Day
Daily Summary
 ActualAverageRecord
Temperature
Mean Temperature °F 42°F  
Max Temperature 53°F 47°F 64°F (2014)
Min Temperature 24°F 36°F 15°F (1984)
Degree Days
Heating Degree Days 26 23  
Month to date heating degree days 403  
Since 1 July heating degree days 2881  
Cooling Degree Days 0 0  
Month to date cooling degree days 0  
Year to date cooling degree days 0  
Moisture
Dew Point 29°F   
Average Humidity 91    
Maximum Humidity 100    
Minimum Humidity 52    
Precipitation
Precipitation 0.00 in 0.50 in 4.54 in (2005)
Month to date precipitation 8.26  
Year to date precipitation 8.26  
Wind
Wind Speed 0 mph   
Max Wind Speed 7 mph   
Max Gust Speed 8 mph   
Visibility 3 miles   
Events Fog   

Key: T is trace of precipitation, MM is missing value
Source: NWS Daily Summary
Time(PST)TemperatureDew PointHumidity Pressure Visibility Wind DirectionWind SpeedGust SpeedPrecipitationEvents Conditions
12:44 AM 30.2°F 28.4°F 93% 30.49 in 2.0 miles Calm Calm - N/A   Clear
12:49 AM 28.4°F 26.6°F 93% 30.48 in 1.2 miles Calm Calm - N/A   Clear
12:53 AM 28.0°F 27.0°F 96% 30.49 in 0.8 miles Calm Calm - N/A   Clear
1:23 AM 26.6°F 24.8°F 93% 30.47 in 1.8 miles Calm Calm - N/A   Clear
1:28 AM 26.6°F 26.6°F 100% 30.47 in 3.0 miles Calm Calm - N/A   Clear
1:38 AM 28.4°F 26.6°F 93% 30.46 in 2.0 miles Calm Calm - N/A   Clear
1:53 AM 27.0°F 26.1°F 96% 30.48 in 1.8 miles NNW 3.5 mph - N/A   Clear
2:04 AM 28.4°F 26.6°F 93% 30.46 in 3.0 miles Calm Calm - N/A   Clear
2:53 AM 27.0°F 26.1°F 96% 30.46 in 2.5 miles Calm Calm - N/A   Clear
3:15 AM 26.6°F 24.8°F 93% 30.45 in 3.0 miles Calm Calm - N/A   Clear
3:24 AM 28.4°F 26.6°F 93% 30.45 in 2.0 miles Calm Calm - N/A   Clear
3:26 AM 26.6°F 26.6°F 100% 30.45 in 0.8 miles Calm Calm - N/A   Clear
3:30 AM 26.6°F 24.8°F 93% 30.45 in 0.2 miles Calm Calm - N/A Fog Light Freezing Fog
3:40 AM 26.6°F 24.8°F 93% 30.45 in 1.0 miles Calm Calm - N/A   Mist
3:42 AM 26.6°F 24.8°F 93% 30.45 in 2.5 miles Calm Calm - N/A   Partly Cloudy
3:50 AM 26.6°F 24.8°F 93% 30.45 in 3.0 miles Calm Calm - N/A   Partly Cloudy
3:53 AM 26.1°F 25.0°F 96% 30.46 in 3.0 miles Calm Calm - N/A   Partly Cloudy
4:53 AM 27.0°F 26.1°F 96% 30.44 in 4.0 miles Calm Calm - N/A   Clear
5:53 AM 26.1°F 24.1°F 92% 30.41 in 3.0 miles Calm Calm - N/A   Clear
6:28 AM 24.8°F 21.2°F 86% 30.40 in 2.0 miles Calm Calm - N/A   Clear
6:41 AM 26.6°F 24.8°F 93% 30.40 in 3.0 miles Calm Calm - N/A   Clear
6:53 AM 26.1°F 24.1°F 92% 30.41 in 3.0 miles Calm Calm - N/A   Clear
7:53 AM 25.0°F 23.0°F 92% 30.41 in 3.0 miles Calm Calm - N/A   Clear
8:08 AM 24.8°F 24.8°F 100% 30.40 in 2.5 miles Calm Calm - N/A   Clear
8:53 AM 28.9°F 28.0°F 96% 30.42 in 3.0 miles Calm Calm - N/A   Clear
9:53 AM 35.1°F 32.0°F 89% 30.42 in 4.0 miles Calm Calm - N/A   Clear
10:53 AM 39.9°F 35.1°F 83% 30.42 in 5.0 miles Calm Calm - N/A   Haze
11:53 AM 45.0°F 37.9°F 76% 30.38 in 5.0 miles Calm Calm - N/A   Haze
12:53 PM 48.9°F 37.9°F 66% 30.36 in 6.0 miles NE 3.5 mph - N/A   Haze
1:53 PM 52.0°F 35.1°F 53% 30.34 in 6.0 miles Calm Calm - N/A   Haze
2:53 PM 53.1°F 36.0°F 52% 30.31 in 6.0 miles Calm Calm - N/A   Haze
3:53 PM 51.1°F 41.0°F 68% 30.29 in 5.0 miles Calm Calm - N/A   Haze
4:53 PM 41.0°F 39.0°F 93% 30.30 in 4.0 miles Calm Calm - N/A   Clear
5:53 PM 35.1°F 34.0°F 96% 30.29 in 3.0 miles Calm Calm - N/A   Clear
6:01 PM 35.6°F 35.6°F 100% 30.28 in 2.0 miles Calm Calm - N/A   Clear
6:16 PM 35.6°F 33.8°F 93% 30.28 in 4.0 miles Calm Calm - N/A   Clear
6:53 PM 34.0°F 33.1°F 96% 30.29 in 4.0 miles Calm Calm - N/A   Clear
7:00 PM 33.8°F 32.0°F 93% 30.28 in 1.5 miles Calm Calm - N/A   Clear
7:11 PM 33.8°F 32.0°F 93% 30.28 in 3.0 miles Calm Calm - N/A   Clear
7:47 PM 32.0°F 30.2°F 93% 30.29 in 1.8 miles North 3.5 mph - N/A   Clear
7:53 PM 32.0°F 30.9°F 96% 30.30 in 1.5 miles North 3.5 mph - N/A   Clear
7:58 PM 30.2°F 30.2°F 100% 30.29 in 3.0 miles NNE 3.5 mph - N/A   Clear
8:53 PM 30.0°F 30.0°F 100% 30.30 in 4.0 miles Calm Calm - N/A   Clear
9:00 PM 30.2°F 30.2°F 100% 30.29 in 2.5 miles Calm Calm - N/A   Partly Cloudy
9:04 PM 30.2°F 30.2°F 100% 30.29 in 1.2 miles Calm Calm - N/A   Partly Cloudy
9:14 PM 30.2°F 30.2°F 100% 30.29 in 2.0 miles East 3.5 mph - N/A   Partly Cloudy
9:22 PM 32.0°F 30.2°F 93% 30.29 in 3.0 miles East 3.5 mph - N/A   Partly Cloudy
9:53 PM 30.9°F 30.9°F 100% 30.30 in 5.0 miles Calm Calm - N/A   Clear
10:53 PM 28.9°F 28.0°F 96% 30.28 in 6.0 miles Calm Calm - N/A   Clear
11:53 PM 28.9°F 28.0°F 96% 30.28 in 3.0 miles Calm Calm - N/A   Clear
11:58 PM 30.2°F 28.4°F 93% 30.28 in 1.8 miles Calm Calm - N/A   Clear
Moon Phase
Jan. 17 Jan. 18 Jan. 26 Feb. 03 Feb. 10
Sunrise:08:01 AM (PST) Moon Rise:10:37 AM (PST)
Sunset:04:56 PM (PST) Moon Set:No Moon Set/

Copyright © 2014 The Weather Underground, Inc.